Berlin, NH

6:31 AM EDT on May 29, 2017 (GMT -0400)
Berlin Municipal

Weather History for KBML - February, 2014

Change the Weather History Date:

Saturday, February 22, 2014

  Actual Average Record
Temperature  
Mean Temperature 35 °F -  
Max Temperature 44 °F 28 °F 55 °F (1997)
Min Temperature 26 °F 3 °F -17 °F (2011)
Degree Days  
Heating Degree Days 30    
Moisture  
Dew Point 21 °F    
Average Humidity 58    
Maximum Humidity 100    
Minimum Humidity 27    
Precipitation  
Precipitation 0.00 in - - ()
Sea Level Pressure  
Sea Level Pressure 29.77 in    
Wind  
Wind Speed 4 mph (WSW)    
Max Wind Speed 13 mph    
Max Gust Speed 29 mph    
Visibility 9 miles    
Events      
Averages and records for this station are not official NWS values.
T = Trace of Precipitation, MM = Missing Value Source: NWS Daily Summary

Daily Weather History Graph

Daily Weather History Graph

Search for Another Location

Airport or City:

Trip Planner

Search our weather history database for the weather conditions in past years. The results will help you decide how hot, cold, wet, or windy it might be!

Date:

Astronomy

Feb. 22, 2014 Rise Set
Actual Time 6:33 AM EST 5:23 PM EST
Civil Twilight 6:04 AM EST 5:52 PM EST
Nautical Twilight 5:30 AM EST 6:26 PM EST
Astronomical Twilight 4:56 AM EST 7:00 PM EST
Moon 12:31 AM EST (2/22) 10:25 AM EST (2/22)
Length of Visible Light 11h 48m
Length of Day
10h 49m
Waning Gibbous, 50% of the Moon is Illuminated
Feb 22
Waning Gibbous
Feb 22
Last Quarter
Mar 1
New
Mar 8
First Quarter
Mar 16
Full

Hourly Weather History & Observations

Time (EST) Temp. Windchill Dew Point Humidity Pressure Visibility Wind Dir Wind Speed Gust Speed Precip Events Conditions
2:23 AM 28.9 °F - 28.9 °F 100% 29.73 in 0.8 mi Calm Calm - N/A   Mist
2:50 AM 30.2 °F - 28.4 °F 93% 29.73 in 1.5 mi Calm Calm - N/A   Mostly Cloudy
2:52 AM 30.0 °F - 28.0 °F 92% 29.77 in 2.0 mi Calm Calm - N/A   Overcast
3:01 AM 30.0 °F - 28.0 °F 92% 29.74 in 6.0 mi Calm Calm - N/A   Overcast
3:52 AM 28.9 °F 25.2 °F 27.0 °F 92% 29.79 in 8.0 mi SE 3.5 mph - N/A   Mostly Cloudy
4:52 AM 30.0 °F - 27.0 °F 88% 29.80 in 10.0 mi Calm Calm - N/A   Mostly Cloudy
5:52 AM 28.0 °F - 26.1 °F 92% 29.80 in 10.0 mi Calm Calm - N/A   Overcast
6:52 AM 26.1 °F 21.9 °F 24.1 °F 92% 29.83 in 10.0 mi Variable 3.5 mph - N/A   Partly Cloudy
7:52 AM 30.9 °F 27.5 °F 26.1 °F 82% 29.83 in 10.0 mi Variable 3.5 mph - N/A   Clear
8:52 AM 37.0 °F - 23.0 °F 57% 29.82 in 10.0 mi Calm Calm - N/A   Clear
9:52 AM 39.9 °F 35.1 °F 19.9 °F 45% 29.81 in 10.0 mi Variable 6.9 mph - N/A   Clear
10:52 AM 41.0 °F 34.7 °F 21.0 °F 45% 29.78 in 10.0 mi WSW 10.4 mph 17.3 mph N/A   Clear
11:52 AM 43.0 °F 37.2 °F 21.9 °F 43% 29.75 in 10.0 mi WSW 10.4 mph 18.4 mph N/A   Partly Cloudy
12:52 PM 43.0 °F 36.4 °F 21.9 °F 43% 29.74 in 10.0 mi SW 12.7 mph 18.4 mph N/A   Mostly Cloudy
1:52 PM 44.1 °F 38.1 °F 21.0 °F 40% 29.69 in 10.0 mi West 11.5 mph 27.6 mph N/A   Mostly Cloudy
2:52 PM 43.0 °F 36.4 °F 21.0 °F 42% 29.73 in 10.0 mi WSW 12.7 mph 28.8 mph N/A   Overcast
3:52 PM 43.0 °F 41.3 °F 21.0 °F 42% 29.72 in 10.0 mi Variable 3.5 mph 19.6 mph N/A   Overcast
4:52 PM 42.1 °F 37.1 °F 21.0 °F 43% 29.73 in 10.0 mi WSW 8.1 mph 21.9 mph N/A   Overcast
5:52 PM 42.1 °F 36.1 °F 19.0 °F 40% 29.74 in 10.0 mi SW 10.4 mph 21.9 mph N/A   Mostly Cloudy
6:52 PM 41.0 °F 34.3 °F 17.1 °F 38% 29.76 in 10.0 mi WSW 11.5 mph 28.8 mph N/A   Clear
7:52 PM 41.0 °F 36.4 °F 12.0 °F 31% 29.76 in 10.0 mi Variable 6.9 mph 17.3 mph N/A   Clear
8:52 PM 39.9 °F 33.9 °F 9.0 °F 28% 29.78 in 10.0 mi West 9.2 mph 24.2 mph N/A   Clear
9:52 PM 39.0 °F - 7.0 °F 27% 29.79 in 10.0 mi North - - N/A   Clear
10:52 PM 37.0 °F 31.6 °F 6.1 °F 28% 29.81 in 10.0 mi Variable 6.9 mph - N/A   Clear
11:52 PM 34.0 °F 28.8 °F 8.1 °F 34% 29.85 in 10.0 mi WNW 5.8 mph - N/A   Clear